Location: Ahstedt
(52.2048°N, 10.1060°E)
Time: 23:49:09
(UTC+00:00)

CZ-4C R/B - Pass Details

Date: 18 January 2026
Orbit: 482 x 1496 km, 63.4° (Epoch: 18 February)

Event Time Altitude Azimuth Distance (km) Brightness Sun altitude
Exits shadow 04:15:15 28° 346° (NNW) 1,695 3.6 -27.4°
Maximum altitude 04:16:54 32° 14° (NNE) 1,642 3.7 -27.2°
Drops below altitude 10° 04:23:25 10° 76° (ENE) 3,122 6.1 -26.2°
Sets 04:26:53 0° 85° (E) 4,247 7.2 -25.7°
